Home > Weather > Kitzbühel > Past weeks

Flag for Austria Weather for the Past 2 Weeks in Kitzbühel, Tyrol, Austria

Now
51 °F

Cool.


Feels Like: 51 °F
Forecast: 32 / 50 °F
Wind: 1 mph from West

Location: Kufstein

Current Time: Feb 7, 2016 at 5:24:32 PM

Latest Report: Feb 7, 2016 at 4:00 PM


Visibility: N/A

Pressure: 29.69 "Hg (27.12 "Hg at 750m altitude)

Humidity: 58%

Dew point: 37 °F

Location of KitzbühelLocation

Historic Weather in Kitzbühel — Graph

°F

Kitzbühel Temperature Yesterday

Maximum temperature yesterday: 47 °F (at 3:00 PM)
Minimum temperature yesterday: 34 °F (at 8:00 AM)
Average temperature yesterday: 40 °F

High & Low Weather Summary for the Past Weeks

 TemperatureHumidityPressure
High51 °F (Feb 7, 4:00 PM)100% (Jan 26, 7:00 AM)30.74 "Hg (Jan 26, 7:00 AM)
Low25 °F (Jan 24, 8:00 AM)51% (Feb 7, 6:00 AM)29.69 "Hg (Feb 7, 4:00 PM)
Average37 °F89%30.34 "Hg
* Reported Jan 23 4:00 PM — Feb 7 4:00 PM, Kitzbühel, Weather by CustomWeather, © 2016

Note: Actual official high and low records may vary slightly from our data, if they occured in-between our weather recording intervals... More about our weather records

Advertising

Kitzbühel Weather History for the Previous 24 Hours

 ConditionsComfort  
Time TempWeatherWind HumidityBarometerVisibility
4:00 PM
Sun, Feb 7
51 °FCool.1 mph58%29.69 "HgN/A
3:00 PM47 °FCool.1 mph63%29.70 "HgN/A
2:00 PM45 °FCool.2 mph66%29.69 "HgN/A
1:00 PM46 °FCool.3 mph63%29.71 "HgN/A
12:00 PM47 °FCool.3 mph60%29.73 "HgN/A
11:00 AM47 °FCool.1 mph58%29.77 "HgN/A
10:00 AM44 °FQuite cool.3 mph61%29.80 "HgN/A
9:00 AM42 °FQuite cool.1 mph64%29.83 "HgN/A
8:00 AM41 °FQuite cool.2 mph65%29.83 "HgN/A
7:00 AM42 °FQuite cool.2 mph62%29.83 "HgN/A
6:00 AM47 °FCool.3 mph51%29.81 "HgN/A
9:00 PM
Sat, Feb 6
38 °FChilly.5 mph89%30.03 "HgN/A
8:00 PM40 °FChilly.3 mph87%30.04 "HgN/A
7:00 PM41 °FQuite cool.5 mph86%30.06 "HgN/A
6:00 PM42 °FQuite cool.3 mph83%30.06 "HgN/A
5:00 PM45 °FCool.3 mph76%30.07 "HgN/A
Weather by CustomWeather, © 2016

See weather overviewHow to use our weather pages